This demonstration page uses our WeatherBlox Daily Observations layout. Learn more.

Left ArrowRight Arrow

40.92945, -100.16068

Hourly Observations for June 16, 2020

Temp ( °F °C ) Dew Point ( °F °C ) Humidity (%) Winds ( mph kmh ) Pressure ( in mb ) Visibility ( mi km ) Precip ( " mm )
12:15 am 00:15 Clear 75 23.7 51 10.7 44 44 SSE 15 24 29.92 1013 10 16.0934 0 0
12:35 am 00:35 Clear 74 23.6 52 11 45 45 SSE 17 28 29.92 1013 10 16.0934 0 0
12:55 am 00:55 Clear 75 23.9 52 11 44 44 SSE 20 31 29.91 1013 10 16.0934 0 0
1:15 am 01:15 Clear 75 23.7 52 11 45 45 SSE 18 30 29.92 1013 10 16.0934 0 0
1:35 am 01:35 Clear 74 23.3 52 11.1 46 46 SSE 15 24 29.91 1013 10 16.0934 0 0
1:55 am 01:55 Clear 73 23 52 11.1 47 47 SSE 16 26 29.92 1013 10 16.0934 0 0
2:15 am 02:15 Clear 73 22.8 53 11.4 49 49 SSE 17 28 29.92 1013 10 16.0934 0 0
2:35 am 02:35 Clear 73 22.5 53 11.6 50 50 SSE 16 26 29.92 1013 10 16.0934 0 0
2:55 am 02:55 Clear 72 22 54 12 53 53 SSE 17 28 29.92 1013 10 16.0934 0 0
3:15 am 03:15 Clear 71 21.7 54 12.2 55 55 SSE 16 26 29.92 1013 10 16.0934 0 0
3:35 am 03:35 Clear 71 21.5 54 12.4 56 56 SSE 17 28 29.92 1013 10 16.0934 0 0
3:55 am 03:55 Clear 71 21.5 55 12.5 57 57 SSE 16 26 29.92 1013 10 16.0934 0 0
4:15 am 04:15 Clear 71 21.5 55 12.6 57 57 SSE 16 26 29.92 1013 10 16.0934 0 0
4:35 am 04:35 Clear 70 21.1 55 13 60 60 SSE 18 30 29.91 1013 10 16.0934 0 0
4:55 am 04:55 Clear 70 21 56 13.2 61 61 SSE 17 28 29.91 1013 10 16.0934 0 0
5:15 am 05:15 Clear 70 20.9 56 13.5 63 63 SSE 17 28 29.91 1013 10 16.0934 0 0
5:35 am 05:35 Clear 69 20.7 56 13.6 64 64 SSE 17 28 29.91 1013 10 16.0934 0 0
5:55 am 05:55 Clear 69 20.5 57 14 66 66 SSE 17 28 29.91 1013 10 16.0934 0 0
6:15 am 06:15 Sunny 68 20 57 14.1 69 69 SSE 16 26 29.92 1013 10 16.0934 0 0
6:35 am 06:35 Sunny 68 20.1 58 14.4 70 70 SSE 17 28 29.92 1013 10 16.0934 0 0
6:55 am 06:55 Sunny 69 20.3 58 14.6 70 70 SSE 17 28 29.92 1013 10 16.0934 0 0
7:15 am 07:15 Sunny 69 20.7 59 14.8 69 69 SSE 18 30 29.92 1013 10 16.0934 0 0
7:35 am 07:35 Sunny 70 21.2 59 15.1 68 68 SSE 17 28 29.9 1013 10 16.0934 0 0
7:55 am 07:55 Sunny 71 21.8 59 15.2 66 66 SSE 22 35 29.9 1012 10 16.0934 0 0
8:15 am 08:15 Sunny 73 22.5 60 15.5 65 65 S 21 33 29.9 1013 10 16.0934 0 0
8:35 am 08:35 Sunny 73 23 60 15.4 62 62 SSE 21 33 29.89 1012 10 16.0934 0 0
8:55 am 08:55 Sunny 75 23.7 60 15.6 61 61 SSE 22 35 29.88 1012 10 16.0934 0 0
9:15 am 09:15 Sunny 77 24.8 60 15.8 57 57 S 21 33 29.87 1012 10 16.0934 0 0
9:35 am 09:35 Sunny 78 25.5 60 15.8 55 55 S 23 37 29.87 1011 10 16.0934 0 0
9:55 am 09:55 Sunny 79 26 61 16 54 54 S 21 33 29.86 1011 10 16.0934 0 0
10:15 am 10:15 Sunny 80 26.8 61 16 52 52 S 21 33 29.86 1011 10 16.0934 0 0
10:35 am 10:35 Sunny 82 27.7 61 16 49 49 S 25 41 29.85 1011 10 16.0934 0 0
10:55 am 10:55 Sunny 83 28.3 61 16.2 48 48 S 23 37 29.83 1010 10 16.0934 0 0
11:15 am 11:15 Sunny 83 28.6 61 15.9 46 46 S 26 43 29.83 1010 10 16.0934 0 0
11:35 am 11:35 Sunny 85 29.2 61 16.1 45 45 S 25 41 29.83 1010 10 16.0934 0 0
11:55 am 11:55 Sunny 86 29.9 60 15.8 42 42 S 26 43 29.82 1010 10 16.0934 0 0
12:15 pm 12:15 Sunny 87 30.3 60 15.8 41 41 SSE 28 44 29.82 1010 10 16.0934 0 0
12:35 pm 12:35 Sunny 87 30.7 61 16.1 41 41 S 26 43 29.8 1009 10 16.0934 0 0
12:55 pm 12:55 Sunny 89 31.4 61 16.1 40 40 S 26 43 29.8 1009 10 16.0934 0 0
1:15 pm 13:15 Sunny 90 32.1 60 15.8 37 37 S 26 43 29.78 1009 10 16.0934 0 0
1:35 pm 13:35 Sunny 91 32.5 60 15.3 35 35 S 28 44 29.78 1008 10 16.0934 0 0
1:55 pm 13:55 Sunny 92 33.1 60 15.7 35 35 SSE 26 43 29.76 1008 10 16.0934 0 0
2:15 pm 14:15 Sunny 92 33.1 60 15.3 34 34 S 24 39 29.75 1008 10 16.0934 0 0
2:35 pm 14:35 Sunny 92 33.3 59 14.8 33 33 S 28 44 29.74 1007 10 16.0934 0 0
2:55 pm 14:55 Sunny 93 33.7 56 13.3 29 29 S 30 48 29.74 1007 10 16.0934 0 0
3:15 pm 15:15 Sunny 93 33.9 58 14.2 30 30 S 26 43 29.73 1007 10 16.0934 0 0
3:35 pm 15:35 Sunny 93 33.8 58 14.2 31 31 S 26 43 29.72 1006 10 16.0934 0 0
3:55 pm 15:55 Sunny 92 33.6 57 13.8 30 30 SSE 35 56 29.71 1006 10 16.0934 0 0
4:15 pm 16:15 Sunny 93 33.8 57 13.7 30 30 S 30 48 29.7 1006 10 16.0934 0 0
4:35 pm 16:35 Sunny 92 33.5 57 13.7 30 30 S 29 46 29.7 1006 10 16.0934 0 0
4:55 pm 16:55 Sunny 92 33.5 58 14.2 31 31 SSE 30 48 29.69 1005 10 16.0934 0 0
5:15 pm 17:15 Sunny 92 33.1 57 14 31 31 SSE 31 50 29.7 1006 10 16.0934 0 0
5:35 pm 17:35 Sunny 91 33 57 13.9 31 31 SSE 29 46 29.69 1005 10 16.0934 0 0
5:55 pm 17:55 Sunny 91 32.7 57 13.7 32 32 SSE 25 41 29.69 1005 10 16.0934 0 0
6:15 pm 18:15 Sunny 91 32.5 57 14 33 33 SSE 24 39 29.69 1005 10 16.0934 0 0
6:35 pm 18:35 Sunny 90 32.2 56 13.3 32 32 SSE 25 41 29.68 1005 10 16.0934 0 0
6:55 pm 18:55 Sunny 89 31.9 56 13.2 32 32 SSE 22 35 29.67 1005 10 16.0934 0 0
7:15 pm 19:15 Sunny 89 31.5 55 13 32 32 SSE 21 33 29.69 1005 10 16.0934 0 0
7:35 pm 19:35 Sunny 88 31 57 13.7 35 35 SSE 24 39 29.68 1005 10 16.0934 0 0
7:55 pm 19:55 Sunny 87 30.3 57 13.8 36 36 SSE 23 37 29.69 1005 10 16.0934 0 0
8:15 pm 20:15 Sunny 85 29.5 57 14 39 39 SSE 17 28 29.7 1006 10 16.0934 0 0
8:35 pm 20:35 Sunny 84 28.7 57 14 41 41 SSE 20 31 29.71 1006 10 16.0934 0 0
8:55 pm 20:55 Sunny 83 28.1 57 13.9 42 42 SSE 18 30 29.72 1006 10 16.0934 0 0
9:15 pm 21:15 Clear 82 27.7 57 13.8 42 42 SSE 16 26 29.73 1007 10 16.0934 0 0
9:35 pm 21:35 Clear 81 27.3 56 13.6 43 43 SSE 17 28 29.74 1007 10 16.0934 0 0
9:55 pm 21:55 Clear 80 26.8 56 13.6 44 44 SSE 16 26 29.75 1007 10 16.0934 0 0
10:15 pm 22:15 Clear 80 26.5 56 13.4 44 44 SE 18 30 29.76 1008 10 16.0934 0 0
10:35 pm 22:35 Clear 79 26 56 13.3 45 45 SSE 15 24 29.76 1008 10 16.0934 0 0
10:55 pm 22:55 Clear 78 25.7 55 13 45 45 SSE 18 30 29.76 1008 10 16.0934 0 0
11:15 pm 23:15 Clear 78 25.4 55 13 46 46 SSE 17 28 29.77 1008 10 16.0934 0 0
11:35 pm 23:35 Clear 77 25.1 56 13.1 47 47 SSE 16 26 29.77 1008 10 16.0934 0 0
11:55 pm 23:55 Clear 76 24.6 56 13.3 49 49 SSE 17 28 29.77 1008 10 16.0934 0 0

Powered by AerisWeather